Weather reports worldwide

Advertisment
St. Athan, United Kingdom (3716): temperature & dewpoint: 05.12.2018 23:00:00 - 11.12.2018 23:00:00 (GMT)St. Athan, United Kingdom (3716): temperature -20cm & temperature -100cm: 05.12.2018 23:00:00 - 11.12.2018 23:00:00 (GMT)St. Athan, United Kingdom (3716): wind speed & gusts: 05.12.2018 23:00:00 - 11.12.2018 23:00:00 (GMT)St. Athan, United Kingdom (3716): wind direction: 05.12.2018 23:00:00 - 11.12.2018 23:00:00 (GMT)St. Athan, United Kingdom (3716): reduced air pressure: 05.12.2018 23:00:00 - 11.12.2018 23:00:00 (GMT)St. Athan, United Kingdom (3716): visibility: 05.12.2018 23:00:00 - 11.12.2018 23:00:00 (GMT)St. Athan, United Kingdom (3716): sunshine duration: 05.12.2018 23:00:00 - 11.12.2018 23:00:00 (GMT)St. Athan, United Kingdom (3716): precipitation: 05.12.2018 23:00:00 - 11.12.2018 23:00:00 (GMT)
Date & Time tt [°C] td [°C] tt -20cm [°C] tt -100cm [°C] ff [km/h] ff [kn] fx [km/h] fx [kn] dd ppp [hPa] vv [km] sd [min] rr [mm]
11.12.2018 23:00:00 8,4 6,5 - - 18 10 - - ESE 1019,3 21 0 0,0
11.12.2018 22:00:00 8,4 6,6 - - 15 8 - - E 1019,3 17 0 0,0
11.12.2018 21:00:00 8,2 6,6 - - 16 9 - - E 1019,3 19 0 0,0
11.12.2018 20:00:00 8,4 6,7 - - 18 10 - - ESE 1019,5 16 0 0,0
11.12.2018 19:00:00 8,7 7,1 - - 9 5 - - E 1019,8 15 0 0,0
11.12.2018 18:00:00 8,8 7,1 - - 11 6 - - ESE 1019,8 16 0 0,0
11.12.2018 17:00:00 8,5 7,1 - - 11 6 - - SE 1020,2 14 0 0,0
11.12.2018 16:00:00 8,8 7,5 - - 16 9 - - ESE 1020,3 10 0 0,0
11.12.2018 15:00:00 8,7 7,8 - - 16 9 - - ESE 1020,7 10 0 -
11.12.2018 14:00:00 8,5 8,0 - - 15 8 - - ESE 1021,4 11 0 0,0
11.12.2018 13:00:00 8,5 7,7 - - 13 7 - - ESE 1022,2 11 0 0,0
11.12.2018 12:00:00 8,6 8,2 - - 15 8 - - ESE 1022,5 10 0 0,0
11.12.2018 11:00:00 8,0 7,7 - - 15 8 - - ESE 1023,5 8 0 0,0
11.12.2018 10:00:00 7,5 7,2 - - 15 8 - - ESE 1024,0 3,7 0 0,2
11.12.2018 09:00:00 7,6 7,2 9,2 10,5 9 5 - - ESE 1024,0 4,0 0 0,0
11.12.2018 08:00:00 7,3 7,0 - - 9 5 - - E 1024,2 10 0 0,0
11.12.2018 07:00:00 6,7 6,4 - - 8 4 - - E 1024,1 5 0 0,0
11.12.2018 06:00:00 6,4 6,1 - - 8 4 - - E 1024,4 4,6 0 0,0
11.12.2018 05:00:00 6,5 6,1 - - 9 5 - - E 1024,7 4,4 0 0,0
11.12.2018 04:00:00 6,5 6,1 - - 8 4 - - E 1025,1 6 0 0,0
11.12.2018 03:00:00 7,2 6,7 - - 8 4 - - E 1025,7 7 0 0,0
11.12.2018 02:00:00 7,3 6,6 - - 8 4 - - E 1026,0 10 0 0,0
11.12.2018 01:00:00 7,2 6,7 - - 5 3 - - ENE 1026,5 12 0 0,0
11.12.2018 00:00:00 6,8 6,0 - - 4 2 - - E 1027,2 11 - 0,0
10.12.2018 23:00:00 7,5 6,7 - - 4 2 - - E 1027,7 9 0 0,0
10.12.2018 22:00:00 8,1 7,2 - - 4 2 - - SSE 1027,7 12 0 0,0
10.12.2018 21:00:00 6,8 6,2 - - 5 3 - - SSE 1027,7 12 0 0,0
10.12.2018 20:00:00 6,1 5,1 - - 5 3 - - E 1028,1 12 0 0,0
10.12.2018 19:00:00 7,3 6,5 - - 5 3 - - E 1028,2 11 0 0,0
10.12.2018 18:00:00 7,8 6,4 - - 5 3 - - SE 1028,3 4,2 0 0,0
10.12.2018 17:00:00 8,0 6,0 - - 0 0 - - N 1028,4 10 0 0,0
10.12.2018 16:00:00 8,0 6,1 - - 2 1 - - SSW 1028,7 14 0 0,0
10.12.2018 15:00:00 9,0 6,2 - - 5 3 - - NW 1028,5 16 0 0,0
10.12.2018 14:00:00 9,1 6,1 - - 13 7 - - WNW 1028,6 20 0 0,0
10.12.2018 13:00:00 8,9 5,8 - - 11 6 - - WNW 1028,5 20 0 0,0
10.12.2018 12:00:00 8,5 6,2 - - 13 7 - - WNW 1029,2 10 0 0,0
10.12.2018 11:00:00 7,9 5,9 - - 11 6 - - W 1029,4 13 0 0,0
10.12.2018 10:00:00 6,5 5,0 - - 9 5 - - NW 1029,2 10 30 0,0
10.12.2018 09:00:00 5,9 4,6 9,5 10,5 13 7 - - NW 1029,2 10 0 0,0
10.12.2018 08:00:00 5,9 4,5 - - 9 5 - - NW 1028,4 14 0 0,0
10.12.2018 07:00:00 6,2 4,3 - - 11 6 - - NW 1028,3 14 0 0,0
10.12.2018 06:00:00 7,1 5,0 - - 21 11 - - WNW 1027,6 13 0 0,0
10.12.2018 05:00:00 7,3 5,0 - - 21 11 - - WNW 1027,1 12 0 0,0
10.12.2018 04:00:00 7,9 5,2 - - 22 12 - - WNW 1027,1 14 0 0,0
10.12.2018 03:00:00 8,1 5,1 - - 18 10 - - WNW 1026,6 15 0 0,0
10.12.2018 02:00:00 8,5 5,2 - - 22 12 - - WNW 1026,3 15 0 0,0
10.12.2018 01:00:00 7,7 5,1 - - 21 11 - - WNW 1025,9 14 0 0,0
10.12.2018 00:00:00 8,2 5,1 - - 26 14 - - WNW 1025,5 10 - 0,0
09.12.2018 23:00:00 8,4 5,1 - - 24 13 - - WNW 1025,1 15 0 0,0
09.12.2018 22:00:00 8,6 5,5 - - 28 15 - - WNW 1024,3 15 0 0,0
09.12.2018 21:00:00 9,0 5,8 - - 26 14 - - WNW 1023,4 20 0 0,0
09.12.2018 20:00:00 8,7 6,0 - - 24 13 - - WNW 1023,2 19 0 0,0
09.12.2018 19:00:00 9,0 5,7 - - 24 13 - - WNW 1021,9 18 0 0,0
09.12.2018 18:00:00 9,1 6,0 - - 18 10 - - W 1021,1 16 0 0,0
09.12.2018 17:00:00 9,4 5,4 - - 22 12 - - WNW 1020,3 15 0 0,0
09.12.2018 16:00:00 9,9 6,2 - - 26 14 46 25 WNW 1019,0 16 0 0,0
09.12.2018 15:00:00 10,0 6,0 - - 34 18 48 26 WNW 1017,8 10 0 0,2
09.12.2018 14:00:00 10,4 6,0 - - 29 16 48 26 WNW 1016,3 21 30 0,2
09.12.2018 13:00:00 10,4 5,9 - - 26 14 - - WNW 1015,1 30 30 0,0
09.12.2018 12:00:00 10,0 6,6 - - 24 13 46 25 NW 1013,6 35 6 0,0
09.12.2018 11:00:00 10,4 7,5 - - 28 15 52 28 WNW 1011,9 21 6 0,0
09.12.2018 10:00:00 9,8 7,3 - - 29 16 61 33 WNW 1010,2 9 6 0,0
09.12.2018 09:00:00 9,7 6,5 9,7 10,5 37 20 57 31 WNW 1008,2 10 0 0,0
09.12.2018 08:00:00 9,4 7,2 - - 35 19 63 34 WNW 1006,7 7 0 0,2
09.12.2018 07:00:00 10,5 7,1 - - 37 20 67 36 W 1005,2 11 0 0,0
09.12.2018 06:00:00 10,3 7,2 - - 44 24 70 38 W 1003,9 9 0 0,0
09.12.2018 05:00:00 10,7 6,4 - - 44 24 72 39 W 1003,0 10 0 0,0
09.12.2018 04:00:00 10,4 6,6 - - 48 26 74 40 W 1002,6 9 0 0,2
09.12.2018 03:00:00 10,5 6,4 - - 42 23 70 38 W 1002,4 9 0 0,0
09.12.2018 02:00:00 9,9 7,0 - - 41 22 70 38 W 1002,4 8 0 0,4
09.12.2018 01:00:00 10,1 6,4 - - 39 21 80 43 W 1001,8 8 0 0,0
09.12.2018 00:00:00 9,7 6,8 - - 41 22 74 40 W 1001,8 7 - 0,4
08.12.2018 23:00:00 10,2 6,6 - - 41 22 63 34 W 1001,7 5 0 0,0
08.12.2018 22:00:00 10,4 5,6 - - 44 24 63 34 W 1001,8 12 0 0,0
08.12.2018 21:00:00 10,3 7,0 - - 39 21 68 37 W 1001,1 8 0 0,8
08.12.2018 20:00:00 10,5 6,6 - - 42 23 67 36 W 1001,3 9 0 1,0
08.12.2018 19:00:00 10,7 6,5 - - 35 19 68 37 W 1001,1 11 0 0,0
08.12.2018 18:00:00 10,7 7,3 - - 39 21 67 36 W 1001,2 9 0 1,6
08.12.2018 17:00:00 10,8 7,8 - - 46 25 78 42 W 1000,8 7 0 0,0
08.12.2018 16:00:00 11,2 8,3 - - 41 22 63 34 W 1001,0 6 0 0,0
08.12.2018 15:00:00 10,8 9,7 - - 35 19 72 39 W 1001,4 5 0 3,0
08.12.2018 14:00:00 11,4 10,3 - - 39 21 57 31 W 1002,1 8 0 0,0
08.12.2018 13:00:00 11,3 10,6 - - 41 22 59 32 W 1003,0 9 0 0,2
08.12.2018 12:00:00 11,0 10,2 - - 37 20 52 28 WSW 1003,7 15 0 0,4
08.12.2018 11:00:00 10,4 9,9 - - 29 16 48 26 WSW 1005,3 6 0 0,4
08.12.2018 10:00:00 9,7 9,2 - - 31 17 52 28 WSW 1006,8 5 0 1,8
08.12.2018 09:00:00 9,3 8,5 9,7 10,5 28 15 59 32 W 1007,7 4,0 0 1,4
08.12.2018 08:00:00 10,5 6,3 - - 41 22 63 34 W 1007,4 9 0 0,0
08.12.2018 07:00:00 10,2 6,8 - - 39 21 68 37 W 1007,7 9 0 0,8
08.12.2018 06:00:00 9,2 6,0 - - 44 24 67 36 WNW 1007,4 10 0 0,4
08.12.2018 05:00:00 8,6 6,1 - - 41 22 70 38 W 1007,4 11 0 0,8
08.12.2018 04:00:00 9,2 6,4 - - 37 20 78 42 W 1006,9 6 0 0,4
08.12.2018 03:00:00 10,3 5,4 - - 48 26 76 41 W 1006,2 11 0 0,0
08.12.2018 02:00:00 10,5 5,0 - - 54 29 78 42 W 1005,8 11 0 0,0
08.12.2018 01:00:00 10,3 4,8 - - 46 25 76 41 W 1005,5 11 0 0,0
08.12.2018 00:00:00 10,1 5,3 - - 52 28 70 38 W 1005,3 10 - 0,0
07.12.2018 23:00:00 9,7 5,1 - - 39 21 57 31 W 1005,6 12 0 0,0
07.12.2018 22:00:00 9,0 6,1 - - 34 18 70 38 W 1005,9 10 0 0,4
07.12.2018 21:00:00 10,0 5,7 - - 35 19 74 40 W 1005,7 9 0 0,0
07.12.2018 20:00:00 8,6 4,4 - - 41 22 68 37 W 1005,9 8 0 0,4
07.12.2018 19:00:00 9,6 4,8 - - 34 18 63 34 W 1005,6 13 0 0,0
07.12.2018 18:00:00 9,2 2,9 - - 39 21 59 32 W 1005,5 18 0 0,0
07.12.2018 17:00:00 9,0 3,7 - - 37 20 63 34 W 1004,6 15 0 0,0
07.12.2018 16:00:00 8,1 2,7 - - 39 21 61 33 W 1004,0 26 0 0,0
07.12.2018 15:00:00 8,5 3,9 - - 39 21 67 36 W 1003,4 15 6 0,0
07.12.2018 14:00:00 9,1 2,5 - - 44 24 68 37 W 1003,4 10 42 0,0
07.12.2018 13:00:00 9,1 3,6 - - 41 22 65 35 W 1002,7 18 30 0,0
07.12.2018 12:00:00 8,6 4,5 - - 35 19 54 29 W 1002,5 8 18 0,0
07.12.2018 11:00:00 9,2 4,9 - - 29 16 48 26 WNW 1002,2 15 24 0,6
07.12.2018 10:00:00 9,8 5,4 - - 35 19 57 31 WNW 1001,5 14 6 0,0
07.12.2018 09:00:00 10,5 6,2 10,0 10,5 35 19 54 29 W 1000,8 10 0 0,0
07.12.2018 08:00:00 9,8 9,0 - - 29 16 48 26 WSW 1000,7 8 0 2,4
07.12.2018 07:00:00 10,2 9,1 - - 29 16 55 30 W 1000,9 6 0 3,4
07.12.2018 06:00:00 11,9 11,3 - - 31 17 - - WSW 1000,9 6 0 3,0
07.12.2018 05:00:00 12,2 11,4 - - 28 15 - - SW 1002,1 5 0 4,0
07.12.2018 04:00:00 12,0 11,1 - - 18 10 - - SSW 1003,5 10 0 1,6
07.12.2018 03:00:00 12,5 11,2 - - 21 11 - - SW 1005,4 13 0 0,6
07.12.2018 02:00:00 12,7 11,3 - - 24 13 - - SW 1006,6 13 0 0,2
07.12.2018 01:00:00 12,6 11,3 - - 21 11 - - WSW 1007,9 40 0 0,2
07.12.2018 00:00:00 12,2 11,5 - - 16 9 70 38 WSW 1009,0 26 - 0,0
06.12.2018 23:00:00 12,2 11,8 - - 28 15 - - WSW 1009,9 12 0 0,2
06.12.2018 22:00:00 11,9 11,5 - - 18 10 - - WSW 1011,0 6 0 0,2
06.12.2018 21:00:00 12,0 11,5 - - 21 11 - - WSW 1011,7 7 0 0,0
06.12.2018 20:00:00 12,0 11,7 - - 22 12 - - WSW 1012,4 20 0 0,0
06.12.2018 19:00:00 12,1 11,6 - - 26 14 - - WSW 1012,6 5 0 0,0
06.12.2018 18:00:00 11,9 11,6 - - 28 15 - - WSW 1012,9 6 0 0,2
06.12.2018 17:00:00 12,0 11,6 - - 26 14 - - WSW 1012,8 11 0 0,0
06.12.2018 16:00:00 12,1 11,5 - - 28 15 - - WSW 1012,8 15 0 0,0
06.12.2018 15:00:00 12,0 11,5 - - 26 14 - - WSW 1013,2 9 0 0,6
06.12.2018 14:00:00 11,6 11,4 - - 22 12 - - WSW 1013,4 7 0 0,6
06.12.2018 13:00:00 11,5 11,1 - - 24 13 - - WSW 1014,0 2,7 0 0,4
06.12.2018 12:00:00 11,6 11,1 - - 22 12 - - WSW 1014,3 7 0 0,2
06.12.2018 11:00:00 10,9 10,3 - - 16 9 - - SW 1014,7 3,4 0 0,8
06.12.2018 10:00:00 11,2 9,9 - - 21 11 - - WSW 1014,9 15 0 0,0
06.12.2018 09:00:00 11,0 10,4 9,5 10,5 22 12 - - WSW 1014,6 10 0 0,0
06.12.2018 08:00:00 11,1 10,7 - - 22 12 - - WSW 1014,4 22 0 0,0
06.12.2018 07:00:00 10,9 10,6 - - 24 13 - - WSW 1013,8 30 0 0,0
06.12.2018 06:00:00 10,7 10,5 - - 21 11 - - WSW 1013,4 12 0 0,0
06.12.2018 05:00:00 10,9 10,7 - - 24 13 - - W 1013,6 7 0 0,2
06.12.2018 04:00:00 10,8 10,5 - - 18 10 - - WSW 1013,1 19 0 0,0
06.12.2018 03:00:00 10,8 10,6 - - 21 11 - - W 1012,7 2,0 0 0,2
06.12.2018 02:00:00 10,9 10,7 - - 18 10 - - W 1013,0 8 0 0,0
06.12.2018 01:00:00 10,9 10,8 - - 24 13 - - W 1012,9 3,4 0 0,2
06.12.2018 00:00:00 10,9 10,7 - - 13 7 - - W 1011,8 6 - 0,0
05.12.2018 23:00:00 11,0 10,8 - - 9 5 - - W 1011,3 2,9 0 0,2

tt = temperature
td = dewpoint
tt -20cm = temperature -20cm
tt -100cm = temperature -100cm
ff = wind speed
fx = gusts
dd = wind direction
ppp = reduced air pressure
vv = visibility
sd = sunshine duration
rr = precipitation

Next stations